Rotterdam, Netherlands

8:12 PM CEST on May 24, 2018 (GMT +0200)
Rotterdam

Weather History for EHRD - June, 2014

Change the Weather History Date:

Monday, June 16, 2014

  Actual Average Record
Temperature  
Mean Temperature 56 °F -  
Max Temperature 63 °F 68 °F 77 °F (1999)
Min Temperature 50 °F 53 °F 42 °F (2015)
Degree Days  
Heating Degree Days 8    
Growing Degree Days 6 (Base 50)    
Moisture  
Dew Point 51 °F    
Average Humidity 77    
Maximum Humidity 94    
Minimum Humidity 62    
Precipitation  
Precipitation 0.03 in - - ()
Sea Level Pressure  
Sea Level Pressure 30.24 in    
Wind  
Wind Speed 5 mph ()    
Max Wind Speed 13 mph    
Max Gust Speed -    
Visibility 8.6 miles    
Events Rain    
Averages and records for this station are not official NWS values.
T = Trace of Precipitation, MM = Missing Value Source: Averaged Metar Reports

Daily Weather History Graph

Daily Weather History Graph

Search for Another Location

Airport or City:

Astronomy

Jun. 16, 2014 Rise Set
Actual Time 5:21 AM CEST 10:04 PM CEST
Civil Twilight 4:33 AM CEST 10:52 PM CEST
Nautical Twilight 3:15 AM CEST 12:10 AM CEST
Astronomical Twilight 2:15 AM CEST 1:10 AM CEST
Moon No Moon Rise 9:32 AM CEST (6/16)
Length of Visible Light 18h 19m
Length of Day
16h 42m
Waning Gibbous, 85% of the Moon is Illuminated
Jun 16
Waning Gibbous
Jun 19
Last Quarter
Jun 27
New
Jul 5
First Quarter
Jul 12
Full

Hourly Weather History & Observations

Time (CEST) Temp. Dew Point Humidity Pressure Visibility Wind Dir Wind Speed Gust Speed Precip Events Conditions
12:00 AM 54 °F 47 °F 71% 30.29 in 19 mi North 4.5 mph - -  
12:25 AM 53.6 °F 46.4 °F 77% 30.27 in 6.2 mi North 3.5 mph - N/A   Unknown
12:55 AM 51.8 °F 46.4 °F 82% 30.27 in 6.2 mi NNE 3.5 mph - N/A   Scattered Clouds
1:00 AM 53 °F 46 °F 71% 30.29 in 19 mi NNE 4.5 mph - -   Partly Cloudy
1:25 AM 53.6 °F 46.4 °F 77% 30.27 in 6.2 mi Variable 2.3 mph - N/A   Scattered Clouds
1:55 AM 51.8 °F 46.4 °F 82% 30.27 in 6.2 mi NNE 3.5 mph - N/A   Overcast
2:00 AM 53 °F 47 °F 74% 30.29 in 25 mi North 2.2 mph - -   Partly Cloudy
2:25 AM 51.8 °F 46.4 °F 82% 30.27 in 6.2 mi Variable 2.3 mph - N/A   Overcast
2:55 AM 53.6 °F 48.2 °F 82% 30.27 in 6.2 mi East 1.2 mph - N/A   Overcast
3:00 AM 54 °F 47 °F 70% 30.29 in 19 mi East 2.2 mph - -   Overcast
3:25 AM 55.4 °F 48.2 °F 77% 30.27 in 6.2 mi Variable 2.3 mph - N/A   Overcast
3:55 AM 55.4 °F 48.2 °F 77% 30.27 in 6.2 mi Variable 2.3 mph - N/A   Overcast
4:00 AM 55 °F 48 °F 70% 30.28 in 22 mi NE 4.5 mph - -   Overcast
4:25 AM 55.4 °F 48.2 °F 77% 30.27 in 6.2 mi ENE 3.5 mph - N/A   Overcast
4:55 AM 55.4 °F 48.2 °F 77% 30.27 in 6.2 mi Variable 2.3 mph - N/A   Overcast
5:00 AM 55 °F 48 °F 70% 30.27 in 11 mi Calm Calm - -   Overcast
5:25 AM 55.4 °F 48.2 °F 77% 30.24 in 6.2 mi Variable 1.2 mph - N/A   Overcast
5:55 AM 55.4 °F 50.0 °F 82% 30.24 in 6.2 mi Variable 1.2 mph - N/A   Overcast
6:00 AM 55 °F 49 °F 74% 30.27 in 17 mi Calm Calm - -   Overcast
6:25 AM 55.4 °F 50.0 °F 82% 30.24 in 6.2 mi Variable 1.2 mph - N/A   Overcast
6:55 AM 55.4 °F 50.0 °F 82% 30.24 in 6.2 mi NW 3.5 mph - N/A   Overcast
7:00 AM 56 °F 49 °F 72% 30.27 in 7 mi North 6.7 mph - -   Overcast
7:25 AM 53.6 °F 51.8 °F 94% 30.24 in 3.1 mi NNE 4.6 mph - N/A   Overcast
7:55 AM 55.4 °F 51.8 °F 88% 30.24 in 6.2 mi Variable 2.3 mph - N/A   Overcast
8:00 AM 55 °F 53 °F 91% 30.26 in 8 mi West 4.5 mph - - Rain Drizzle
8:25 AM 55.4 °F 53.6 °F 94% 30.24 in 6.2 mi NW 3.5 mph - N/A   Overcast
8:55 AM 57.2 °F 53.6 °F 88% 30.24 in 6.2 mi North 4.6 mph - N/A   Overcast
9:00 AM 57 °F 52 °F 79% 30.27 in 14 mi North 4.5 mph - -   Overcast
9:25 AM 57.2 °F 51.8 °F 82% 30.24 in - North 3.5 mph - N/A Rain Heavy Drizzle
9:55 AM 57.2 °F 55.4 °F 94% 30.24 in 3.1 mi NNW 3.5 mph - N/A Rain Light Rain
10:00 AM 58 °F 56 °F 89% 30.26 in 11 mi North 4.5 mph - - Rain Light Drizzle
10:25 AM 59.0 °F 55.4 °F 88% 30.24 in 5.0 mi North 5.8 mph - N/A Rain Light Rain
10:55 AM 59.0 °F 55.4 °F 88% 30.24 in 6.2 mi NNW 3.5 mph - N/A   Overcast
11:00 AM 60 °F 56 °F 81% 30.25 in 22 mi NW 2.2 mph - - Rain Rain
11:25 AM 60.8 °F 55.4 °F 82% 30.24 in 6.2 mi NNW 8.1 mph - N/A   Drizzle
11:55 AM 60.8 °F 53.6 °F 77% 30.24 in 6.2 mi North 10.4 mph - N/A   Overcast
12:00 PM 60 °F 54 °F 75% 30.26 in 14 mi North 11.2 mph - - Rain Rain
12:25 PM 60.8 °F 53.6 °F 77% 30.24 in 6.2 mi NNW 10.4 mph - N/A   Overcast
12:55 PM 60.8 °F 53.6 °F 77% 30.24 in 6.2 mi North 8.1 mph - N/A   Drizzle
1:00 PM 62 °F 54 °F 66% 30.26 in 19 mi North 8.9 mph - - Rain Light Drizzle
1:25 PM 59.0 °F 55.4 °F 88% 30.24 in 6.2 mi NNW 10.4 mph - N/A   Overcast
1:55 PM 62.6 °F 55.4 °F 77% 30.24 in 6.2 mi NNW 11.5 mph - N/A   Mostly Cloudy
2:00 PM 62 °F 55 °F 73% 30.25 in 12 mi North 8.9 mph - - Rain Rain
2:25 PM 62.6 °F 53.6 °F 72% 30.24 in 6.2 mi North 11.5 mph - N/A   Mostly Cloudy
2:55 PM 62.6 °F 51.8 °F 68% 30.24 in 6.2 mi North 11.5 mph - N/A   Scattered Clouds
3:00 PM 62 °F 53 °F 64% 30.25 in 14 mi North 11.2 mph - -   Overcast
3:25 PM 62.6 °F 53.6 °F 72% 30.21 in 6.2 mi NNW 11.5 mph - N/A   Mostly Cloudy
3:55 PM 60.8 °F 53.6 °F 77% 30.24 in 6.2 mi NNW 12.7 mph - N/A   Mostly Cloudy
4:00 PM 61 °F 54 °F 70% 30.24 in 17 mi NNW 13.4 mph - - Rain Rain Showers
4:25 PM 59.0 °F 53.6 °F 82% 30.24 in 6.2 mi NNW 11.5 mph - N/A   Overcast
4:55 PM 59.0 °F 55.4 °F 88% 30.24 in 6.2 mi NNW 11.5 mph - N/A   Mostly Cloudy
5:00 PM 59 °F 54 °F 77% 30.24 in 13 mi North 11.2 mph - -   Unknown Precipitation
5:25 PM 59.0 °F 53.6 °F 82% 30.24 in 6.2 mi NNW 12.7 mph - N/A   Overcast
5:55 PM 60.8 °F 51.8 °F 72% 30.21 in 6.2 mi North 9.2 mph - N/A   Mostly Cloudy
6:00 PM 61 °F 51 °F 62% 30.24 in 19 mi North 11.2 mph - -   Partly Cloudy
6:25 PM 60.8 °F 51.8 °F 72% 30.21 in 6.2 mi North 11.5 mph - N/A   Overcast
6:55 PM 60.8 °F 51.8 °F 72% 30.21 in 6.2 mi North 10.4 mph - N/A   Mostly Cloudy
7:00 PM 60 °F 51 °F 65% 30.23 in 15 mi North 8.9 mph - -   Partly Cloudy
7:25 PM 60.8 °F 50.0 °F 68% 30.21 in 6.2 mi North 10.4 mph - N/A   Mostly Cloudy
7:55 PM 59.0 °F 51.8 °F 77% 30.21 in 6.2 mi NNW 9.2 mph - N/A   Overcast
8:00 PM 60 °F 52 °F 67% 30.23 in 17 mi NNW 11.2 mph - -   Partly Cloudy
8:25 PM 59.0 °F 53.6 °F 82% 30.21 in 6.2 mi NNW 11.5 mph - N/A   Overcast
8:55 PM 59.0 °F 51.8 °F 77% 30.21 in 6.2 mi North 8.1 mph - N/A   Overcast
9:00 PM 59 °F 52 °F 69% 30.23 in 16 mi North 8.9 mph - -   Overcast
9:25 PM 59.0 °F 51.8 °F 77% 30.21 in 6.2 mi North 9.2 mph - N/A   Overcast
9:55 PM 59.0 °F 51.8 °F 77% 30.21 in 6.2 mi North 9.2 mph - N/A   Overcast
10:00 PM 59 °F 51 °F 67% 30.23 in 12 mi North 8.9 mph - -   Overcast
10:25 PM 57.2 °F 50.0 °F 77% 30.21 in 6.2 mi North 9.2 mph - N/A   Mostly Cloudy
10:55 PM 57.2 °F 48.2 °F 72% 30.21 in 6.2 mi North 8.1 mph - N/A   Mostly Cloudy
11:00 PM 56 °F 48 °F 67% 30.23 in 11 mi North 6.7 mph - -   Mostly Cloudy
11:25 PM 55.4 °F 48.2 °F 77% 30.21 in 6.2 mi North 5.8 mph - N/A   Mostly Cloudy
11:55 PM 57.2 °F 48.2 °F 72% 30.21 in 6.2 mi North 4.6 mph - N/A   Overcast